Location: ??????
(31.2056°N, 45.3906°E)
Time: 18:42:48
(UTC+00:00)

Cosmos 921 Rocket - Pass Details

Date: 09 April 2020
Orbit: 572 x 632 km, 75.8° (Epoch: 28 May)

Event Time Altitude Azimuth Distance (km) Brightness Sun altitude
Rises 17:27:30 0° 343° (NNW) 2,782 7.1 -25.9°
Reaches altitude 10° 17:29:42 10° 342° (NNW) 1,884 6.1 -26.3°
Enters shadow 17:32:53 50° 326° (NW) 740 3.7 -26.9°
